Location: Arbon
(43.0005°N, 0.7472°E)
Time: 02:10:45
(UTC+00:00)

Cosmos 2150 Rocket - Pass Details

Date: 07 August 2020
Orbit: 748 x 809 km, 74.0° (Epoch: 27 September)

Event Time Altitude Azimuth Distance (km) Brightness Sun altitude
Exits shadow 03:45:08 - 193° (SSW) 2,468 6.2 -11.8°
Reaches altitude 10° 03:45:40 10° 192° (SSW) 2,261 6.0 -11.8°
Maximum altitude 03:50:46 75° 108° (ESE) 782 4.1 -11.0°
Drops below altitude 10° 03:55:58 10° 23° (NNE) 2,301 7.4 -10.2°
Sets 03:58:22 0° 22° (NNE) 3,240 8.3 -9.9°
